COSMOS 1275 DEB, 12743

Orbit data source: Space-Track

COSMOS 1275 DEB, 12743 is space debris in LEO originally from a launch on Thu, 04 Jun 1981 UTC launched from the Plesetsk Missile And Space Complex (PKMTR). Debris objects in space refer to the collection of defunct objects orbiting the Earth. Examples of debris include non-operational satellites, rocket bodies, and fragments generated from explosions, collisions, or faulty payload assembly.

Loading next visibility...
Identifier
12743, 1981-053CL
Orbit
LEO
Country
Flag of CISCIS
Related business
Manufacturer
Unknown
Mission
Spacecraft
Bus & Motor
Unknown
Mass
Unknown
Launch date (UTC)
1981-06-04 (45 years ago)
Launch vehicle
Unknown
Launch site
Plesetsk Missile And Space Complex (PKMTR)
Object type
Payload
Rocket body
Debris
Shape & HBR
Unknown shape, 0.2 m
Radar Cross Section
Medium (>0.1 m² and <1 m²)

Expand to show TLE details & history
Last TLE update: 2 days ago

TLE from 2 days ago
0 COSMOS 1275 DEB
1 12743U 81053CL  26171.38406795  .00000311  00000-0  27862-3 0  9996
2 12743  82.9227 209.7495 0063566 167.5828 217.2131 13.80422920251712
Epoch: 2026-06-20T09:13Z
TLE epoch observation values (Epoch: 2026-06-20T09:13:03.470Z)
Latitude
24.1842°
Longitude
166.06526°
Altitude
1,002.588 km
Speed
7.334 km/s
True Right ascension
14h 11m 43s
True Declination
24° 03' 37"
Sunlit
Object was in daylight at epoch
Visualization orbit readout
Latitude
Unknown
Longitude
Unknown
Altitude
Unknown
Speed
Unknown
Apparent Right ascension
Unknown
Apparent Declination
Unknown
Sunlit
N/A
Visualization observer readout
Local Sidereal Time
22:46:01
Azimuth
Unknown
Elevation
Unknown
Doppler factor
Unknown
Orbital elements
Apogee altitude
1,006.172 km
Perigee altitude
912.886 km
Semi-major axis
7,337.666 km
Eccentricity
0.00636
Inclination
82.9227°
RAAN
209.7495°
Arg. of periapsis
167.5828°
True anomaly
216.77534°
Mean anomaly
217.2131°
Eccentric anomaly
216.99395°
Mean motion
3.45308 °/min
Orbital period
104.25 mins
BSTAR
0.00027862
Loading maneuver chart data...
Computing Atmospheric mass density...

Documentation

Showing up to 5 results
|